Showing default

EXPLORER 29 (GEOS 1), 1726

Orbit data source: Space-Track

EXPLORER 29 (GEOS 1), 1726 is a payload satellite owned by GSFC (US) in LEO that was launched on Sat, 06 Nov 1965 UTC via a THOR DELTA E launch vehicle from the Air Force Eastern Test Range (AFETR). Payload-class satellites include a variety of spacecraft equipped with specific instruments for various scientific and technological missions. These include communications satellites like Starlink; space stations such as the ISS; scientific satellites like the Hubble; Earth observation satellites from companies like Planet Labs, Umbra, and HawkEye 360; GPS; miniature CubeSats for education and research; and military/defense satellites.

Loading next visibility...
Identifier
1726, 1965-089A
Orbit
LEO
Country
Flag of USUS
Related business
Manufacturer
APL
Mission
Spacecraft
Bus & Motor
ANNA, Unknown motor
Mass
176 kg wet, 176 kg dry
Launch date (UTC)
1965-11-06 (60 years ago)
Launch vehicle
THOR DELTA E
Launch site
Air Force Eastern Test Range (AFETR)
Object type
Payload
Rocket body
Debris
Shape & HBR
Unknown
Radar Cross Section
Large (>1 m²)

Expand to show TLE details & history
Last TLE update: 10 hours ago

TLE from 10 hours ago
0 EXPLORER 29 (GEOS 1)
1  1726U 65089A   25312.58197868 -.00000069  00000-0  45629-4 0  9995
2  1726  59.3757 164.9971 0719917  76.8831 316.5178 11.97073963623253
Epoch: 2025-11-08T13:58Z
TLE epoch observation values (Epoch: 2025-11-08T13:58:02.957Z)
Latitude
23.325°
Longitude
-77.81285°
Altitude
1,295.006 km
Speed
7.388 km/s
True Right ascension
11h 58m 50s
True Declination
23° 12' 32"
Sunlit
Object was in daylight at epoch
Visualization orbit readout
Latitude
Unknown
Longitude
Unknown
Altitude
Unknown
Speed
Unknown
Apparent Right ascension
Unknown
Apparent Declination
Unknown
Sunlit
N/A
Visualization observer readout
Local Sidereal Time
20:33:33
Azimuth
Unknown
Elevation
Unknown
Doppler factor
Unknown
Orbital elements
Apogee altitude
2,274.466 km
Perigee altitude
1,112.301 km
Semi-major axis
8,071.52 km
Eccentricity
0.07199
Inclination
59.3757°
RAAN
164.9971°
Arg. of periapsis
76.8831°
True anomaly
310.45703°
Mean anomaly
316.5178°
Eccentric anomaly
313.5271°
Mean motion
2.99302 °/min
Orbital period
120.28 mins
BSTAR
0.000045629
Loading maneuver chart data...
Computing Atmospheric mass density...
Loading historical data...
Loading historical data...
Loading historical data...
Loading historical data...
Loading historical data...
Loading historical data...
Loading historical data...

Documentation

Showing up to 5 results
|